Swansboro, NC

11:35 PM EDT on March 22, 2017 (GMT -0400)
Bogue McAlf

Weather History for KNJM - September, 2012

Change the Weather History Date:

Friday, September 21, 2012

  Actual Average (KNKT) Record (KNKT)
Temperature  
Mean Temperature 68 °F -  
Max Temperature 77 °F 78 °F 86 °F (2002)
Min Temperature 60 °F 62 °F 55 °F (1996)
Cooling Degree Days 4    
Growing Degree Days 18 (Base 50)    
Moisture  
Dew Point 60 °F    
Average Humidity 76    
Maximum Humidity 96    
Minimum Humidity 54    
Precipitation  
Precipitation 0.00 in - - ()
Sea Level Pressure  
Sea Level Pressure 30.08 in    
Wind  
Wind Speed 3 mph (NNE)    
Max Wind Speed 8 mph    
Max Gust Speed -    
Visibility 10 miles    
Events      
Averages and records for this station are not official NWS values.
T = Trace of Precipitation, MM = Missing Value Source: NWS Daily Summary

Daily Weather History Graph

Daily Weather History Graph

Search for Another Location

Airport or City:

Trip Planner

Search our weather history database for the weather conditions in past years. The results will help you decide how hot, cold, wet, or windy it might be!

Date:

Astronomy

Sep. 21, 2012 Rise Set
Actual Time 6:55 AM EDT 7:05 PM EDT
Civil Twilight 6:30 AM EDT 7:30 PM EDT
Nautical Twilight 6:01 AM EDT 8:00 PM EDT
Astronomical Twilight 5:31 AM EDT 8:29 PM EDT
Moon 1:00 PM EDT (9/21) 11:19 PM EDT (9/21)
Length of Visible Light 13h 00m
Length of Day
12h 09m
Waxing Crescent, 37% of the Moon is Illuminated
Sep 21
Waxing Crescent
Sep 22
First Quarter
Sep 29
Full
Oct 8
Last Quarter
Oct 15
New

Hourly Weather History & Observations

Time (EDT) Temp. Dew Point Humidity Pressure Visibility Wind Dir Wind Speed Gust Speed Precip Events Conditions
12:57 AM 64.9 °F 59.0 °F 81% 30.11 in 10.0 mi North 4.6 mph - N/A   Clear
1:57 AM 64.9 °F 60.1 °F 84% 30.10 in 10.0 mi Calm Calm - N/A   Clear
2:57 AM 63.0 °F 59.0 °F 87% 30.09 in 10.0 mi Calm Calm - N/A   Clear
3:57 AM 62.1 °F 59.0 °F 90% 30.08 in 10.0 mi Calm Calm - N/A   Unknown
4:57 AM 62.1 °F 60.1 °F 93% 30.08 in 10.0 mi NNW 3.5 mph - N/A   Clear
5:57 AM 60.1 °F 57.9 °F 93% 30.08 in 10.0 mi NNW 3.5 mph - N/A   Clear
6:57 AM 60.1 °F 59.0 °F 96% 30.09 in 10.0 mi NNW 4.6 mph - N/A   Clear
7:57 AM 63.0 °F 61.0 °F 93% 30.10 in 10.0 mi North 5.8 mph - N/A   Mostly Cloudy
8:57 AM 68.0 °F 61.0 °F 78% 30.10 in 10.0 mi North 4.6 mph - N/A   Scattered Clouds
9:57 AM 72.0 °F 55.9 °F 57% 30.11 in 10.0 mi North 8.1 mph - N/A   Mostly Cloudy
10:57 AM 73.9 °F 59.0 °F 59% 30.10 in 10.0 mi North 8.1 mph - N/A   Mostly Cloudy
11:57 AM 75.9 °F 57.9 °F 54% 30.10 in 10.0 mi North 3.5 mph - N/A   Mostly Cloudy
12:57 PM 75.0 °F 57.9 °F 55% 30.09 in 10.0 mi SE 6.9 mph - N/A   Mostly Cloudy
1:57 PM 75.9 °F 59.0 °F 56% 30.07 in 10.0 mi SE 5.8 mph - N/A   Mostly Cloudy
3:57 PM 77.0 °F 60.1 °F 56% 30.04 in 10.0 mi SE 6.9 mph - N/A   Mostly Cloudy
4:57 PM 75.0 °F 60.1 °F 60% 30.05 in 10.0 mi South 4.6 mph - N/A   Clear
5:57 PM 73.9 °F 61.0 °F 64% 30.05 in 10.0 mi South 4.6 mph - N/A   Clear
6:57 PM 72.0 °F 61.0 °F 68% 30.05 in 10.0 mi SSE 3.5 mph - N/A   Clear
7:57 PM 70.0 °F 61.0 °F 73% 30.04 in 10.0 mi SSE 3.5 mph - N/A   Clear
8:57 PM 66.0 °F 62.1 °F 87% 30.06 in 10.0 mi Calm Calm - N/A   Clear
9:57 PM 64.9 °F 62.1 °F 90% 30.06 in 10.0 mi Calm Calm - N/A   Clear
10:57 PM 64.9 °F 62.1 °F 90% 30.05 in 10.0 mi Calm Calm - N/A   Clear
11:57 PM 64.0 °F 61.0 °F 90% 30.06 in 10.0 mi Calm Calm - N/A   Clear